Location: Shenandoah County Park
(38.9356°N, 78.4524°W)
Time: 15:02:09
(UTC-05:00)

Courier 1B Rocket - Pass Details

Date: 06 December 2023
Orbit: 920 x 1202 km, 28.2° (Epoch: 25 February)

Event Time Altitude Azimuth Distance (km) Brightness Sun altitude
Rises 17:18:45 0° 254° (WSW) 3,554 10.3 -5.6°
Reaches altitude 10° 17:24:09 10° 216° (SW) 2,600 8.3 -6.5°
Maximum altitude 17:25:11 10° 206° (SSW) 2,571 8.0 -6.7°
Drops below altitude 10° 17:26:13 10° 196° (SSW) 2,603 7.9 -6.9°
Sets 17:31:40 0° 158° (SSE) 3,576 8.0 -7.9°
